This is the latest recevied weather packets stored in our database for station/object KN6WGU. If no packets are shown the sender has not sent any weather packets the latest 10 day(s).
| Time | Temp. | Humidity | Pressure | Rain* | Wind** | Luminosity | Snow |
|---|---|---|---|---|---|---|---|
| 1787505937 | 22.78° C | 66% | 1006.7 hPa | 0 mm | - | 221 W/m² | - |
| 1787505632 | 22.22° C | 67% | 1006.8 hPa | 0 mm | - | 197 W/m² | - |
| 1787505327 | 21.67° C | 68% | 1006.7 hPa | 0 mm | - | 161 W/m² | - |
| 1787505022 | 21.67° C | 67% | 1006.7 hPa | 0 mm | - | 151 W/m² | - |
| 1787504717 | 22.22° C | 64% | 1006.9 hPa | 0 mm | - | 164 W/m² | - |
| 1787504414 | 22.22° C | 70% | 1007 hPa | 0 mm | - | 181 W/m² | - |
| 1787504108 | 21.67° C | 65% | 1007 hPa | 0 mm | - | 141 W/m² | - |
| 1787503803 | 21.67° C | 69% | 1007.2 hPa | 0 mm | - | 153 W/m² | - |
| 1787503499 | 21.67° C | 70% | 1007 hPa | 0 mm | - | 140 W/m² | - |
| 1787503195 | 21.11° C | 69% | 1007 hPa | 0 mm | - | 153 W/m² | - |
| 1787502891 | 21.67° C | 72% | 1006.8 hPa | 0 mm | - | 143 W/m² | - |
| 1787502586 | 21.11° C | 71% | 1006.9 hPa | 0 mm | - | 150 W/m² | - |
| 1787502285 | 21.11° C | 70% | 1007.1 hPa | 0 mm | - | 131 W/m² | - |
| 1787501981 | 21.11° C | 71% | 1007 hPa | 0 mm | - | 97 W/m² | - |
| 1787501677 | 21.11° C | 71% | 1007 hPa | 0 mm | - | 112 W/m² | - |
| 1787501372 | 21.11° C | 72% | 1007.1 hPa | 0 mm | - | 110 W/m² | - |
| 1787501069 | 21.11° C | 71% | 1007.1 hPa | 0 mm | - | 143 W/m² | - |
| 1787500764 | 21.11° C | 71% | 1007.3 hPa | 0 mm | - | 118 W/m² | - |
| 1787500455 | 21.11° C | 72% | 1007.2 hPa | 0 mm | - | 147 W/m² | - |
| 1787500155 | 21.11° C | 73% | 1007.3 hPa | 0 mm | - | 95 W/m² | - |
| 1787499849 | 21.11° C | 71% | 1007.2 hPa | 0 mm | - | 119 W/m² | - |
| 1787499543 | 21.11° C | 72% | 1007.2 hPa | 0 mm | - | 97 W/m² | - |
| 1787499239 | 21.11° C | 73% | 1007.2 hPa | 0 mm | - | 85 W/m² | - |
| 1787498936 | 21.11° C | 71% | 1007.4 hPa | 0 mm | - | 98 W/m² | - |
| 1787498633 | 21.11° C | 71% | 1007.1 hPa | 0 mm | - | 132 W/m² | - |
* Rain latest hour (hover to see other rain measurements)
** Current wind speed in m/s (hover to see current wind gust speed)